Weather History for Klamath Falls, OR

Change the Weather History Date:

Sunday, August 4, 2013

  Actual Average Record
Temperature  
Mean Temperature 66 °F 67 °F  
Max Temperature 87 °F 85 °F 100 °F (1998)
Min Temperature 45 °F 49 °F 39 °F (2002)
Degree Days  
Heating Degree Days 0 1  
Month to date heating degree days 16 4  
Since 1 June heating degree days 195 271  
Since 1 July heating degree days 17 54  
Cooling Degree Days 1 3  
Month to date cooling degree days 1 12  
Year to date cooling degree days 219 106  
Since 1 June cooling degree days 219 105  
Growing Degree Days 16 (Base 50)    
Moisture  
Dew Point 42 °F    
Average Humidity 47    
Maximum Humidity 93    
Minimum Humidity 13    
Precipitation  
Precipitation 0.00 in 0.01 in 0.34 in (1950)
Month to date precipitation 0.00 0.05  
Year to date precipitation 4.55 9.36  
Sea Level Pressure  
Sea Level Pressure 29.96 in    
Wind  
Wind Speed 2 mph (West)    
Max Wind Speed 9 mph    
Max Gust Speed 14 mph    
Visibility 7 miles    
Events      
T = Trace of Precipitation, MM = Missing Value Source: NWS Daily Summary

Daily Weather History Graph

Daily Weather History Graph

Search for Another Location

Airport:

Trip Planner

Search our weather history database for the weather conditions in past years. The results will help you decide how hot, cold, wet, or windy it might be!

Date:

Astronomy

Aug. 04, 2013 Rise Set
Actual Time 6:03 AM PDT 8:21 PM PDT
Civil Twilight 5:32 AM PDT 8:53 PM PDT
Nautical Twilight 4:53 AM PDT 9:31 PM PDT
Astronomical Twilight 4:10 AM PDT 10:14 PM PDT
Moon 4:08 AM PDT (8/4) 6:48 PM PDT (8/4)
Length of Visible Light 15h 20m
Length of Day
14h 18m
Waning Crescent, 4% of the Moon is Illuminated
Aug 4
Waning Crescent
Aug 6
New
Aug 14
First Quarter
Aug 20
Full
Aug 28
Last Quarter

Hourly Weather History & Observations

Time (PDT) Temp. Dew Point Humidity Pressure Visibility Wind Dir Wind Speed Gust Speed Precip Events Conditions
12:53 AM 52.0 °F 45.0 °F 77% 29.98 in 4.0 mi Calm Calm - N/A   Haze
1:53 AM 51.1 °F 41.0 °F 68% 29.98 in 5.0 mi North 3.5 mph - N/A   Haze
2:53 AM 50.0 °F 44.1 °F 80% 29.98 in 5.0 mi Calm Calm - N/A   Haze
3:53 AM 48.0 °F 45.0 °F 89% 29.98 in 5.0 mi Calm Calm - N/A   Clear
4:53 AM 46.9 °F 44.1 °F 90% 29.99 in 5.0 mi Calm Calm - N/A   Clear
5:53 AM 46.9 °F 44.1 °F 90% 29.99 in 7.0 mi Calm Calm - N/A   Smoke
6:53 AM 48.9 °F 42.1 °F 77% 30.00 in 8.0 mi Calm Calm - N/A   Smoke
7:53 AM 57.9 °F 48.9 °F 72% 30.00 in 9.0 mi Calm Calm - N/A   Smoke
8:53 AM 64.9 °F 46.9 °F 52% 30.00 in 10.0 mi Calm Calm - N/A   Smoke
9:53 AM 70.0 °F 43.0 °F 38% 29.98 in 10.0 mi Calm Calm - N/A   Smoke
10:53 AM 73.0 °F 41.0 °F 31% 29.98 in 10.0 mi Calm Calm - N/A   Smoke
11:53 AM 75.9 °F 39.9 °F 27% 29.98 in 10.0 mi Variable 3.5 mph - N/A   Smoke
12:53 PM 80.1 °F 43.0 °F 27% 29.97 in 10.0 mi Variable 4.6 mph - N/A   Smoke
1:53 PM 82.0 °F 37.9 °F 21% 29.96 in 10.0 mi SSW 5.8 mph - N/A   Smoke
2:53 PM 84.0 °F 28.9 °F 14% 29.94 in 10.0 mi Variable 3.5 mph - N/A   Smoke
3:53 PM 84.0 °F 32.0 °F 15% 29.92 in 10.0 mi South 3.5 mph - N/A   Smoke
4:53 PM 86.0 °F 32.0 °F 14% 29.90 in 10.0 mi Calm Calm - N/A   Smoke
5:53 PM 84.9 °F 33.1 °F 16% 29.90 in 10.0 mi SSW 3.5 mph - N/A   Smoke
6:53 PM 82.0 °F 34.0 °F 18% 29.89 in 10.0 mi WSW 4.6 mph - N/A   Smoke
7:53 PM 77.0 °F 41.0 °F 28% 29.89 in 10.0 mi WNW 6.9 mph - N/A   Smoke
8:53 PM 72.0 °F 46.0 °F 40% 29.91 in 8.0 mi WSW 5.8 mph - N/A   Smoke
9:53 PM 69.1 °F 48.9 °F 49% 29.93 in 4.0 mi NW 4.6 mph - N/A   Haze
10:05 PM 68.0 °F 48.2 °F 49% 30.06 in 3.0 mi Calm Calm - N/A   Haze
10:53 PM 69.1 °F 48.0 °F 47% 29.94 in 3.0 mi WNW 3.5 mph - N/A   Haze
11:03 PM 64.4 °F 46.4 °F 52% 30.07 in 3.0 mi Calm Calm - N/A   Haze
11:53 PM 64.9 °F 46.0 °F 50% 29.95 in 3.0 mi WNW 3.5 mph - N/A   Haze